Location: D�nning
(49.2479°N, 12.8491°E)
Time: 05:29:04
(UTC+00:00)

ATLAS 2AS CENTAUR R/B - Pass Details

Date: 18 September 2020
Orbit: 939 x 1273 km, 63.7° (Epoch: 27 October)

Event Time Altitude Azimuth Distance (km) Brightness Sun altitude
Rises 19:13:14 0° 180° (S) 4,183 5.5 -19.5°
Reaches altitude 10° 19:16:20 10° 171° (S) 3,241 4.9 -19.9°
Enters shadow 19:16:58 12° 168° (SSE) 3,067 4.7 -20.0°
Exits shadow 19:24:46 29° 90° (E) 2,153 3.8 -21.1°
Drops below altitude 10° 19:29:45 10° 54° (NE) 3,248 5.0 -21.8°
Sets 19:32:51 0° 45° (NE) 4,193 5.7 -22.3°
